www.pogodaiklimat.ru

Погода и климат >> Архив погоды >> Бразилия >> Мату-Гросу-ду-Сул >> Понта-Поран


ПОГОДА в Понта-Поране

  • Прогноз погоды в Понта-Поране
  • Монитор погоды в Понта-Поране

АРХИВ ПОГОДЫ в Понта-Поране

Время (UTC), дата Ветер
(напр.,м/с)
 
Видим.   Явления Облачность Т
(С)
Тd
(С)
f
(%)
Тe
(С)
Тes
(С)
Комфортность P
(гПа)
Po
(гПа)
Тmin
(С)
Tmax
(С)
R
(мм)
R24
(мм)
S
(см)
22 10.06 СЗ 1
{2}
н/о н/о +19.0 +14.3 74 +21 +21 комфорт 1017.1 940.6
23 10.06 СЗ 1
{2}
н/о н/о +18.0 +14.0 77 +19 +19 1017.5 940.8
00 11.06 СЗ 1
{2}
н/о н/о +17.3 +13.7 79 +18 +18 1018.2 941.2
01 11.06 СЗ 1
{2}
н/о н/о +16.6 +13.4 81 +17 +17 1018.6 941.4
02 11.06 СЗ 2
{2}
н/о н/о +16.4 +13.3 82 +17 +17 1018.7 941.5
03 11.06 СЗ 1
{2}
н/о н/о +16.0 +13.3 84 +17 +17 1018.9 941.5
04 11.06 СЗ 1
{2}
н/о н/о +15.6 +13.3 86 +16 +16 1019.0 941.5
05 11.06 СЗ 2
{2}
н/о н/о +16.3 +13.8 85 +17 +17 1018.8 941.5
06 11.06 СЗ 1
{2}
н/о н/о +15.9 +13.8 87 +17 +17 1018.1 940.8
07 11.06 СЗ 1
{2}
н/о н/о +15.1 +13.5 90 +16 +16 1017.8 940.3
08 11.06 СЗ 1
{2}
н/о н/о +14.6 +13.4 93 +15 +15 1018.1 940.4
09 11.06 З 2
{2}
н/о н/о +14.6 +13.5 93 +14 +14 1018.4 940.7
10 11.06 З 1
{3}
н/о н/о +15.0 +13.6 91 +15 +15 1018.6 941.0
11 11.06 СЗ 1
{3}
н/о н/о +14.9 +13.8 93 +15 +15 1019.3 941.6
12 11.06 СЗ 2
{3}
н/о н/о +16.6 +14.8 89 +17 +17 1019.6 942.3
13 11.06 СЗ 2
{4}
н/о н/о +18.7 +15.6 82 +20 +20 1019.4 942.7
14 11.06 СЗ 2
{4}
н/о н/о +21.6 +16.5 73 +25 +25 комфорт 1018.5 942.6
15 11.06 СЗ 2
{4}
н/о н/о +23.8 +17.1 66 +28 +28 душно 1017.4 942.1
16 11.06 СЗ 2
{4}
н/о н/о +26.1 +16.5 55 +30 +30 душно 1015.9 941.3
17 11.06 СЗ 3
{4}
н/о н/о +26.2 +15.3 51 +29 +29 жарко 1014.8 940.3
18 11.06 СЗ 2
{4}
н/о н/о +26.6 +15.3 50 +29 +29 жарко 1013.9 939.5
19 11.06 СЗ 2
{4}
н/о н/о +26.6 +15.9 52 +30 +30 душно 1013.4 939.1
20 11.06 СЗ 1
{3}
н/о н/о +25.2 +16.5 59 +29 +29 душно 1013.7 939.0
21 11.06 СЗ 1
{2}
н/о н/о +23.1 +17.1 69 +28 +28 душно 1014.3 939.1
22 11.06 СЗ 1
{2}
н/о н/о +21.9 +17.1 74 +26 +26 душно 1015.0 939.4
23 11.06 СЗ 1
{1}
н/о н/о +21.3 +16.6 75 +25 +25 комфорт 1015.7 939.9
00 12.06 штиль 0
{1}
н/о н/о +20.6 +16.4 77 +24 +24 комфорт 1016.3 940.3
01 12.06 СЗ 1
{1}
н/о н/о +20.3 +16.4 78 +25 +25 комфорт 1016.7 940.6
02 12.06 СЗ 1
{1}
н/о н/о +20.2 +16.1 77 +24 +24 комфорт 1017.1 940.9
03 12.06 СЗ 1
{1}
н/о н/о +19.5 +15.9 80 +23 +23 комфорт 1017.1 940.8
04 12.06 СЗ 1
{2}
н/о н/о +18.5 +16.0 85 +21 +21 комфорт 1017.2 940.6
05 12.06 СЗ 1
{2}
н/о н/о +18.8 +15.8 83 +21 +21 комфорт 1017.0 940.5
06 12.06 СЗ 1
{2}
н/о н/о +18.1 +15.5 85 +20 +20 1016.7 940.0
07 12.06 СЗ 1
{1}
н/о н/о +17.4 +15.4 88 +19 +19 1016.5 939.7
08 12.06 СЗ 1
{2}
н/о н/о +16.6 +15.1 91 +17 +17 1016.7 939.7
09 12.06 СЗ 1
{2}
н/о н/о +16.4 +14.9 91 +17 +17 1016.6 939.5
10 12.06 СЗ 1
{2}
н/о н/о +16.2 +14.6 90 +17 +17 1017.3 940.1
11 12.06 СЗ 2
{3}
н/о н/о +17.0 +15.0 88 +18 +18 1017.7 940.7
12 12.06 СЗ 2
{3}
н/о н/о +20.4 +16.2 77 +24 +24 комфорт 1017.2 941.1
13 12.06 СЗ 3
{4}
н/о н/о +21.2 +16.4 74 +25 +25 комфорт 1017.3 941.4
14 12.06 СЗ 3
{4}
н/о н/о +24.3 +17.1 64 +28 +28 душно 1016.5 941.4
15 12.06 СЗ 2
{5}
н/о н/о +26.1 +17.5 59 +30 +30 душно 1015.4 940.8
16 12.06 СЗ 2
{5}
н/о н/о +27.1 +17.3 55 +31 +31 душно 1014.4 940.1
17 12.06 СЗ 2
{5}
н/о н/о +27.7 +17.7 54 +32 +32 очень
душно
1013.1 939.1
18 12.06 СЗ 3
{5}
н/о н/о +27.3 +17.1 54 +31 +31 душно 1012.5 938.4
19 12.06 СЗ 3
{5}
н/о н/о +27.0 +17.2 55 +31 +31 душно 1012.4 938.2
20 12.06 СЗ 2
{5}
н/о н/о +26.4 +17.1 57 +30 +30 душно 1012.2 937.9
21 12.06 СЗ 1
{4}
н/о н/о +23.6 +17.7 70 +28 +28 душно 1013.3 938.3
22 12.06 СЗ 1
{2}
н/о н/о +22.1 +16.9 72 +26 +26 душно 1014.3 938.8
23 12.06 СЗ 1
{2}
н/о н/о +20.9 +16.9 78 +26 +26 душно 1015.0 939.2
00 13.06 СЗ 1
{2}
н/о н/о +19.9 +16.6 81 +24 +24 комфорт 1016.1 939.9
01 13.06 СЗ 1
{3}
н/о н/о +19.6 +16.1 80 +23 +23 комфорт 1016.7 940.4
02 13.06 СЗ 2
{3}
н/о н/о +19.8 +15.3 75 +23 +23 комфорт 1016.7 940.5
03 13.06 СЗ 1
{3}
н/о н/о +20.1 +15.1 73 +24 +24 комфорт 1016.8 940.6
04 13.06 СЗ 1
{3}
н/о н/о +17.9 +14.8 82 +19 +19 1017.5 940.7
05 13.06 СЗ 1
{2}
н/о н/о +17.4 +14.7 84 +18 +18 1017.7 940.8
06 13.06 СЗ 1
{2}
н/о н/о +16.9 +14.3 85 +18 +18 1017.7 940.7
08 13.06 СЗ 1
{2}
н/о н/о +15.8 +13.8 88 +16 +16 1017.7 940.4
09 13.06 СЗ 1
{2}
н/о н/о +15.1 +13.6 91 +16 +16 1018.2 940.7
10 13.06 СЗ 1
{2}
н/о н/о +15.2 +13.4 89 +16 +16 1018.9 941.3
11 13.06 СЗ 1
{2}
н/о н/о +15.7 +13.6 87 +16 +16 1019.8 942.3
12 13.06 СЗ 1
{2}
н/о н/о +18.0 +14.4 79 +19 +19 1019.8 942.9
13 13.06 СЗ 2
{3}
н/о н/о +20.0 +14.6 71 +23 +23 комфорт 1019.5 943.1
14 13.06 СЗ 2
{3}
н/о н/о +22.4 +14.8 62 +26 +26 жарко 1018.7 943.0
15 13.06 СЗ 2
{4}
н/о н/о +24.6 +15.1 55 +27 +27 жарко 1017.4 942.3
16 13.06 СЗ 2
{4}
н/о н/о +26.5 +15.3 50 +29 +29 жарко 1015.8 941.3
17 13.06 СЗ 2
{5}
н/о н/о +26.8 +14.5 47 +29 +29 жарко 1014.7 940.3
18 13.06 СЗ 2
{4}
н/о н/о +27.4 +14.4 45 +30 +30 жарко 1013.5 939.4
19 13.06 СЗ 2
{4}
н/о н/о +27.5 +12.9 40 +29 +29 жарко 1013.0 938.9
20 13.06 С 1
{4}
н/о н/о +26.6 +13.0 43 +28 +28 жарко 1013.2 938.9
21 13.06 СЗ 1
{3}
н/о н/о +24.1 +13.5 52 +26 +26 жарко 1014.2 939.2
22 13.06 С 1
{2}
н/о н/о +22.3 +13.7 58 +25 +25 комфорт 1015.1 939.6
23 13.06 С 1
{3}
н/о н/о +22.0 +13.4 58 +25 +25 комфорт 1015.3 939.7
00 14.06 С 1
{3}
н/о н/о +21.4 +13.1 59 +24 +24 комфорт 1015.8 940.0
01 14.06 С 1
{3}
н/о н/о +20.5 +13.3 63 +24 +24 комфорт 1016.2 940.2
02 14.06 С 1
{4}
н/о н/о +21.9 +13.5 59 +25 +25 комфорт 1015.8 940.2
03 14.06 С 1
{3}
н/о н/о +21.2 +13.6 62 +24 +24 комфорт 1016.4 940.5
04 14.06 С 1
{3}
н/о н/о +20.2 +13.4 65 +23 +23 комфорт 1016.4 940.3
05 14.06 С 1
{2}
н/о н/о +18.9 +13.4 70 +21 +21 комфорт 1016.5 940.1
06 14.06 С 1
{3}
н/о н/о +20.5 +12.9 62 +24 +24 комфорт 1016.2 940.2
07 14.06 С 1
{3}
н/о н/о +20.0 +12.9 64 +23 +23 комфорт 1015.8 939.7
08 14.06 СЗ 1
{3}
н/о н/о +17.3 +13.0 76 +19 +19 1017.2 940.3
09 14.06 СЗ 1
{2}
н/о н/о +17.1 +12.9 76 +18 +18 1017.7 940.7
10 14.06 СЗ 1
{2}
н/о н/о +15.9 +13.1 83 +17 +17 1018.8 941.4
11 14.06 СЗ 1
{2}
н/о н/о +16.5 +13.4 82 +17 +17 1019.7 942.4
12 14.06 СЗ 1
{2}
н/о н/о +18.0 +14.0 77 +19 +19 1019.7 942.8
13 14.06 СЗ 2
{3}
н/о н/о +19.9 +14.8 72 +23 +23 комфорт 1019.8 943.4
14 14.06 СЗ 2
{3}
н/о н/о +23.4 +16.0 63 +28 +28 душно 1018.9 943.4
15 14.06 СЗ 2
{3}
н/о н/о +23.6 +15.0 59 +26 +26 жарко 1018.6 943.2
16 14.06 СЗ 1
{3}
н/о н/о +25.0 +16.4 59 +28 +28 жарко 1017.4 942.4
17 14.06 СЗ 2
{3}
н/о н/о +26.3 +15.8 52 +29 +29 жарко 1016.2 941.6
18 14.06 СЗ 2
{3}
н/о н/о +26.9 +15.9 51 +30 +30 душно 1015.3 940.9
19 14.06 СЗ 1
{3}
н/о н/о +26.0 +16.5 56 +30 +30 душно 1015.2 940.6
20 14.06 СЗ 1
{2}
н/о н/о +25.5 +15.4 54 +29 +29 душно 1015.1 940.4
21 14.06 СЗ 1
{2}
н/о н/о +23.5 +16.0 63 +27 +27 душно 1015.9 940.6
22 14.06 СЗ 1
{1}
н/о н/о +21.7 +16.7 73 +26 +26 душно 1016.5 940.8
23 14.06 СЗ 1
{1}
н/о н/о +21.0 +17.0 78 +26 +26 душно 1017.3 941.3
00 15.06 СЗ 1
{1}
н/о н/о +20.4 +16.6 79 +25 +25 комфорт 1017.9 941.7
01 15.06 СЗ 1
{2}
н/о н/о +20.1 +16.3 79 +24 +24 комфорт 1018.3 942.0
02 15.06 СЗ 1
{1}
н/о н/о +20.0 +15.8 77 +24 +24 комфорт 1018.2 941.9
03 15.06 СЗ 1
{1}
н/о н/о +19.7 +15.4 76 +23 +23 комфорт 1018.3 941.9
04 15.06 СЗ 1
{1}
н/о н/о +18.3 +15.4 83 +20 +20 1018.5 941.8
05 15.06 СЗ 1
{1}
н/о н/о +18.4 +15.0 81 +21 +21 комфорт 1018.4 941.7
06 15.06 СЗ 1
{2}
н/о н/о +18.0 +14.6 81 +19 +19 1018.1 941.3
07 15.06 СЗ 1
{2}
н/о н/о +17.5 +14.4 82 +19 +19 1017.8 940.9
08 15.06 З 1
{1}
н/о н/о +17.0 +13.7 81 +19 +19 1017.8 940.8
09 15.06 СЗ 1
{2}
н/о н/о +16.6 +13.5 82 +17 +17 1018.3 941.1
10 15.06 СЗ 1
{2}
н/о н/о +16.3 +13.4 83 +17 +17 1018.9 941.6
11 15.06 СЗ 1
{2}
н/о н/о +16.9 +13.6 81 +18 +18 1019.5 942.3
12 15.06 СЗ 1
{2}
н/о н/о +19.4 +14.7 74 +22 +22 комфорт 1019.5 943.0
13 15.06 СЗ 2
{3}
н/о н/о +21.6 +14.6 64 +25 +25 комфорт 1019.6 943.6
14 15.06 СЗ 2
{3}
н/о н/о +23.6 +15.5 60 +27 +27 жарко 1018.7 943.3
15 15.06 СЗ 2
{5}
н/о н/о +25.4 +15.2 53 +28 +28 жарко 1017.7 942.8
16 15.06 СЗ 3
{4}
н/о н/о +26.0 +15.8 53 +29 +29 душно 1016.5 941.8
17 15.06 СЗ 2
{4}
н/о н/о +27.0 +16.4 52 +30 +30 душно 1015.3 940.9
18 15.06 СЗ 2
{5}
н/о н/о +26.9 +15.9 51 +30 +30 душно 1014.5 940.2
19 15.06 СЗ 2
{4}
н/о н/о +27.0 +16.6 53 +31 +31 душно 1014.2 939.9
20 15.06 СЗ 1
{4}
н/о н/о +25.1 +16.6 59 +29 +29 душно 1014.7 939.9
21 15.06 СЗ 1
{2}
н/о н/о +24.4 +16.5 61 +28 +28 душно 1015.3 940.3
22 15.06 СЗ 1
{2}
н/о н/о +22.5 +16.4 68 +27 +27 душно 1016.2 940.7
23 15.06 СЗ 1
{1}
н/о н/о +21.8 +16.0 70 +26 +26 душно 1017.1 941.3
00 16.06 СЗ 1
{1}
н/о н/о +21.2 +16.1 73 +25 +25 комфорт 1017.9 941.9
01 16.06 СЗ 1
{1}
н/о н/о +20.9 +16.4 75 +26 +26 душно 1018.5 942.4
02 16.06 СЗ 1
{1}
н/о н/о +20.5 +16.2 76 +25 +25 комфорт 1019.1 942.9
03 16.06 З 1
{2}
н/о н/о +20.4 +15.9 75 +25 +25 комфорт 1019.3 943.0
04 16.06 СЗ 1
{2}
н/о н/о +19.6 +15.7 78 +23 +23 комфорт 1019.6 943.1
05 16.06 СЗ 1
{2}
н/о н/о +19.5 +15.3 77 +22 +22 комфорт 1019.7 943.2
06 16.06 З 1
{2}
н/о н/о +18.8 +14.7 77 +21 +21 комфорт 1019.9 943.2
07 16.06 СЗ 1
{2}
н/о н/о +18.5 +14.4 77 +20 +20 1019.7 942.9
08 16.06 СЗ 1
{2}
н/о н/о +18.1 +14.4 79 +19 +19 1020.3 943.4
09 16.06 З 1
{2}
н/о н/о +17.4 +14.0 80 +19 +19 1020.7 943.6
10 16.06 СЗ 1
{2}
н/о н/о +17.1 +13.7 80 +18 +18 1021.4 944.1
11 16.06 СЗ 1
{2}
н/о н/о +16.7 +13.6 82 +18 +18 1022.5 945.0
12 16.06 СЗ 1
{2}
н/о н/о +20.3 +14.7 70 +24 +24 комфорт 1022.1 945.6
13 16.06 СЗ 2
{3}
н/о н/о +22.4 +14.5 61 +26 +26 жарко 1022.0 946.0
14 16.06 СЗ 2
{4}
н/о н/о +24.5 +14.9 55 +27 +27 жарко 1021.0 945.6
15 16.06 СЗ 3
{4}
н/о н/о +25.8 +15.0 51 +29 +29 душно 1019.8 944.8
16 16.06 СЗ 3
{5}
н/о н/о +26.6 +15.5 51 +30 +30 душно 1018.6 943.9
17 16.06 СЗ 2
{4}
н/о н/о +27.3 +15.5 48 +30 +30 душно 1017.7 943.2
18 16.06 СЗ 1
{3}
н/о н/о +27.6 +16.2 50 +31 +31 душно 1017.2 942.8
19 16.06 СЗ 1
{3}
н/о н/о +27.6 +16.5 51 +31 +31 душно 1016.9 942.6
20 16.06 СЗ 1
{2}
н/о н/о +26.6 +16.4 54 +30 +30 душно 1017.0 942.4
21 16.06 СЗ 1
{2}
н/о н/о +24.2 +16.5 62 +28 +28 душно 1017.6 942.4
22 16.06 штиль 0
{1}
н/о н/о +22.5 +16.6 69 +27 +27 душно 1018.8 943.1
23 16.06 штиль 0
{1}
н/о н/о +21.8 +16.1 70 +26 +26 душно 1019.2 943.3
00 17.06 штиль 0
{1}
н/о н/о +21.1 +15.8 72 +24 +24 комфорт 1020.0 943.8
01 17.06 штиль 0
{1}
н/о н/о +20.7 +15.6 73 +24 +24 комфорт 1020.7 944.4
02 17.06 СЗ 1
{2}
н/о н/о +20.0 +15.2 74 +24 +24 комфорт 1021.2 944.7
03 17.06 СЗ 1
{2}
н/о н/о +19.2 +15.1 77 +22 +22 комфорт 1021.5 944.8
04 17.06 СЗ 1
{2}
н/о н/о +18.8 +14.9 78 +21 +21 комфорт 1021.5 944.7
05 17.06 СЗ 1
{2}
н/о н/о +18.9 +14.7 77 +21 +21 комфорт 1021.3 944.5
06 17.06 СЗ 1
{2}
н/о н/о +18.5 +14.5 78 +20 +20 1020.7 943.8
07 17.06 СЗ 1
{2}
н/о н/о +17.7 +14.3 80 +19 +19 1020.7 943.6
08 17.06 З 1
{2}
н/о н/о +17.4 +14.2 81 +18 +18 1020.6 943.5
09 17.06 СЗ 1
{2}
н/о н/о +16.8 +14.1 84 +18 +18 1021.3 944.0
10 17.06 СЗ 1
{2}
н/о н/о +16.6 +13.9 84 +17 +17 1021.9 944.5
11 17.06 СЗ 1
{2}
н/о н/о +17.2 +13.8 80 +18 +18 1022.3 945.0
12 17.06 СЗ 2
{3}
н/о н/о +20.0 +15.0 73 +23 +23 комфорт 1022.1 945.5
13 17.06 СЗ 2
{3}
н/о н/о +21.9 +14.7 64 +25 +25 комфорт 1021.8 945.7
14 17.06 СЗ 2
{4}
н/о н/о +23.6 +14.1 55 +26 +26 жарко 1021.3 945.7
15 17.06 СЗ 3
{4}
н/о н/о +25.2 +14.2 50 +28 +28 жарко 1020.1 944.9
17 17.06 СЗ 2
{4}
н/о н/о +26.1 +13.7 46 +28 +28 жарко 1017.7 942.9
18 17.06 СЗ 2
{4}
н/о н/о +26.7 +14.0 46 +29 +29 жарко 1016.5 942.0
19 17.06 З 2
{4}
н/о н/о +26.6 +13.3 44 +29 +29 жарко 1016.0 941.5
20 17.06 З 2
{4}
н/о н/о +25.3 +12.9 46 +27 +27 жарко 1015.9 941.1
21 17.06 СЗ 1
{3}
н/о н/о +22.3 +13.8 59 +25 +25 комфорт 1016.8 941.2
22 17.06 СЗ 1
{2}
н/о н/о +20.9 +13.5 63 +25 +25 комфорт 1017.4 941.4

 

Местоположение метеостанции Понта-Поран (Мату-Гросу-ду-Сул, Бразилия): широта -22.53 долгота -55.53 высота над уровнем моря 652 м.

В архиве по умолчанию представлена погода в Понта-Поране за последнюю неделю. Архивные данные за месяц целиком и за предыдущие месяцы, начиная с января 2011 года, Вы можете получить, выбрав интересующий диапазон дат из раскрывающегося списка и нажав кнопку "Ввод!".


*Определитесь, кто Вы:
робот инопланетянин человек

Внимание! Время в таблицах - всемирное. Для получения местного времени необходимо прибавить поправку, которая равна -3 ч.

Смотрите также архив погоды в соседних городах и на ближайших метеорологических станциях:

Погода в Понта-Пора (Мату-Гросу-ду-Сул, Бразилия) (17 км)
Погода в Педро-Хуан-Кабальеро (Парагвай) (21 км)
Погода в Амамбаи (Мату-Гросу-ду-Сул, Бразилия) (56 км)
Погода в Дорадусе (Мату-Гросу-ду-Сул, Бразилия) (73 км)
Погода в Жути (Мату-Гросу-ду-Сул, Бразилия) (102 км)
Погода в Маракажу (Мату-Гросу-ду-Сул, Бразилия) (107 км)
Погода в Бела-Виста (Мату-Гросу-ду-Сул, Бразилия) (114 км)
Погода в Рио-Брилханте (Мату-Гросу-ду-Сул, Бразилия) (133 км)
Погода в Жардиме (Мату-Гросу-ду-Сул, Бразилия) (133 км)
Погода в Ивиньеме (Мату-Гросу-ду-Сул, Бразилия) (166 км)

Пояснения к столбцам:

Ветер - указаны скорость ветра в м/с - средняя за 10 мин, порывы в срок и между сроками (в фигурных скобках) и направление, откуда дует ветер: С - северный, СВ - северо-восточный, В - восточный, ЮВ - юго-восточный, Ю - южный, ЮЗ - юго-западный, З - западный, СЗ - северо-западный.
Видимость - горизонтальная дальность видимости в метрах или километрах. При видимости от 1 до 10 км при отсутствии осадков обычно наблюдается дымка, при ухудшении видимости до 1 км и менее - туман. В сухую погоду видимость может ухудшаться дымом, пылью или мглою.
Явления - указаны атмосферные явления, наблюдавшиеся в срок или в последний час перед сроком; фигурными скобками обозначены явления, наблюдавшиеся между сроками (за 1-3 часа до срока); квадратными скобками обозначены град или гололедные отложения с указанием их диаметра в мм.
Облачность - указаны через наклонную черту общая и нижняя облачность в баллах и высота нижней границы облаков в метрах; квадратными скобками обозначены формы облаков: Ci - перистые, Cs - перисто-слоистые, Cc - перисто-кучевые, Ac - высококучевые, As - высокослоистые, Sc - слоисто-кучевые, Ns - слоисто-дождевые, Cu - кучевые, Cb - кучево-дождевые. Подробнее классификацию облаков см. в Атласе облаков (PDF).
T - Температура воздуха - температура, измеренная на высоте 2 м над землей.
Td - Температура точки росы - температура, при понижении до которой содержащийся в воздухе водяной пар достигнет насыщения.
f - Относительная влажность воздуха - влажноcть воздуха, измеренная на высоте 2 м над землей.
Te - Эффективная температура - температура, которую ощущает одетый по сезону человек в тени. Характеристика душности погоды. При расчете учитывается влияние влажности воздуха и скорости ветра на теплоощущения человека.
Tes - Эффективная температура на солнце - температура, которую ощущает человек, с поправкой на солнечный нагрев. Характеристика знойности погоды. Зависит от высоты солнца над горизонтом, облачности и скорости ветра. Ночью, в пасмурную погоду, а также при ветре 12 м/с и более поправка равна нулю.
P - Атмосферное давление - приведенное к уровню моря атмосферное давление.
Po - Атмосферное давление - измеренное на уровне метеостанции атмосферное давление.
Tmin - Минимальная температура - минимум температуры воздуха на высоте 2 м над землей.
Tmax - Максимальная температура - максимум температуры воздуха на высоте 2 м над землей.
R - Количество осадков - Количество выпавших осадков за период времени, мм. При наведении курсора мыши на число - период времени, за который выпало указанное количество осадков.
R24 - Количество осадков - Количество выпавших осадков за 24 часа, мм.
S - Снежный покров - Высота снежного покрова, см. При наведении курсора мыши на число - состояние снежного покрова и степень покрытия местности в баллах.